owner,sensor,date,latitude,longitude,vertical_datum,wind_speed,wind_to_direction,wind_speed_of_gust,qcFlag 
DISL,ioos:station:DISL:DISL:1,2017-11-01T00:30:00Z,30.2513,-88.0778,9.68,1.84,123.9,-9999.0,'1111122,1111122,1111122' 
DISL,ioos:station:DISL:DISL:1,2017-11-01T01:30:00Z,30.2513,-88.0778,9.68,2.68,132.6,-9999.0,'1111122,1111122,1111122' 
DISL,ioos:station:DISL:DISL:1,2017-11-01T02:30:00Z,30.2513,-88.0778,9.68,3.45,131.8,-9999.0,'1111122,1111122,1111122' 
DISL,ioos:station:DISL:DISL:1,2017-11-01T03:30:00Z,30.2513,-88.0778,9.68,3.77,134.1,-9999.0,'1111122,1111122,1111122' 
DISL,ioos:station:DISL:DISL:1,2017-11-01T04:30:00Z,30.2513,-88.0778,9.68,4.25,144.0,-9999.0,'1111122,1111122,1111122' 
DISL,ioos:station:DISL:DISL:1,2017-11-01T05:30:00Z,30.2513,-88.0778,9.68,4.7,136.8,-9999.0,'1111122,1111122,1111122' 
DISL,ioos:station:DISL:DISL:1,2017-11-01T06:30:00Z,30.2513,-88.0778,9.68,3.98,136.0,-9999.0,'1111122,1111122,1111122' 
DISL,ioos:station:DISL:DISL:1,2017-11-01T07:30:00Z,30.2513,-88.0778,9.68,3.74,138.2,-9999.0,'1111122,1111122,1111122' 
DISL,ioos:station:DISL:DISL:1,2017-11-01T08:30:00Z,30.2513,-88.0778,9.68,4.44,133.6,-9999.0,'1111122,1111122,1111122' 
DISL,ioos:station:DISL:DISL:1,2017-11-01T09:30:00Z,30.2513,-88.0778,9.68,4.31,139.4,-9999.0,'1111122,1111122,1111122' 
DISL,ioos:station:DISL:DISL:1,2017-11-01T10:30:00Z,30.2513,-88.0778,9.68,3.98,135.6,-9999.0,'1111122,1111122,1111122' 
DISL,ioos:station:DISL:DISL:1,2017-11-01T11:30:00Z,30.2513,-88.0778,9.68,4.58,138.8,-9999.0,'1111122,1111122,1111122' 
DISL,ioos:station:DISL:DISL:1,2017-11-01T12:30:00Z,30.2513,-88.0778,9.68,4.72,137.5,-9999.0,'1111122,1111122,1111122' 
DISL,ioos:station:DISL:DISL:1,2017-11-01T13:30:00Z,30.2513,-88.0778,9.68,4.69,139.0,-9999.0,'1111122,1111122,1111122' 
DISL,ioos:station:DISL:DISL:1,2017-11-01T14:30:00Z,30.2513,-88.0778,9.68,5.46,138.6,-9999.0,'1111122,1111122,1111122' 
DISL,ioos:station:DISL:DISL:1,2017-11-01T15:30:00Z,30.2513,-88.0778,9.68,5.92,136.7,-9999.0,'1111122,1111122,1111122' 
DISL,ioos:station:DISL:DISL:1,2017-11-01T16:30:00Z,30.2513,-88.0778,9.68,5.23,131.1,-9999.0,'1111122,1111122,1111122' 
DISL,ioos:station:DISL:DISL:1,2017-11-01T17:30:00Z,30.2513,-88.0778,9.68,4.49,136.6,-9999.0,'1111122,1111122,1111122' 
DISL,ioos:station:DISL:DISL:1,2017-11-01T18:30:00Z,30.2513,-88.0778,9.68,4.9,141.4,-9999.0,'1111122,1111122,1111122' 
DISL,ioos:station:DISL:DISL:1,2017-11-01T19:30:00Z,30.2513,-88.0778,9.68,5.16,141.4,-9999.0,'1111122,1111122,1111122' 
DISL,ioos:station:DISL:DISL:1,2017-11-01T20:30:00Z,30.2513,-88.0778,9.68,5.14,138.7,-9999.0,'1111122,1111122,1111122' 
DISL,ioos:station:DISL:DISL:1,2017-11-01T21:30:00Z,30.2513,-88.0778,9.68,4.89,134.8,-9999.0,'1111122,1111122,1111122' 
DISL,ioos:station:DISL:DISL:1,2017-11-01T22:30:00Z,30.2513,-88.0778,9.68,5.35,137.4,-9999.0,'1111122,1111122,1111122' 
DISL,ioos:station:DISL:DISL:1,2017-11-01T23:30:00Z,30.2513,-88.0778,9.68,5.03,137.0,-9999.0,'1111122,1111122,1111122' 
DISL,ioos:station:DISL:DISL:1,2017-11-02T00:30:00Z,30.2513,-88.0778,9.68,4.5,146.2,-9999.0,'1111122,1111122,1111122' 
DISL,ioos:station:DISL:DISL:1,2017-11-02T01:30:00Z,30.2513,-88.0778,9.68,5.6,143.2,-9999.0,'1111122,1111122,1111122' 
DISL,ioos:station:DISL:DISL:1,2017-11-02T02:30:00Z,30.2513,-88.0778,9.68,4.44,154.2,-9999.0,'1111122,1111122,1111122' 
DISL,ioos:station:DISL:DISL:1,2017-11-02T03:30:00Z,30.2513,-88.0778,9.68,5.14,151.4,-9999.0,'1111122,1111122,1111122' 
DISL,ioos:station:DISL:DISL:1,2017-11-02T04:30:00Z,30.2513,-88.0778,9.68,4.83,159.6,-9999.0,'1111122,1111122,1111122' 
DISL,ioos:station:DISL:DISL:1,2017-11-02T05:30:00Z,30.2513,-88.0778,9.68,4.47,158.4,-9999.0,'1111122,1111122,1111122' 
DISL,ioos:station:DISL:DISL:1,2017-11-02T06:30:00Z,30.2513,-88.0778,9.68,3.38,170.2,-9999.0,'1111122,1111122,1111122' 
DISL,ioos:station:DISL:DISL:1,2017-11-02T07:30:00Z,30.2513,-88.0778,9.68,3.13,177.7,-9999.0,'1111122,1111122,1111122' 
DISL,ioos:station:DISL:DISL:1,2017-11-02T08:30:00Z,30.2513,-88.0778,9.68,1.51,190.3,-9999.0,'1111122,1111122,1111122' 
DISL,ioos:station:DISL:DISL:1,2017-11-02T09:30:00Z,30.2513,-88.0778,9.68,1.26,219.1,-9999.0,'1111122,1111122,1111122' 
DISL,ioos:station:DISL:DISL:1,2017-11-02T10:30:00Z,30.2513,-88.0778,9.68,1.4,127.3,-9999.0,'1111122,1111122,1111122' 
DISL,ioos:station:DISL:DISL:1,2017-11-02T11:30:00Z,30.2513,-88.0778,9.68,1.4,45.09,-9999.0,'1111122,1111122,1111122' 
DISL,ioos:station:DISL:DISL:1,2017-11-02T12:30:00Z,30.2513,-88.0778,9.68,1.06,108.8,-9999.0,'1111122,1111122,1111122' 
DISL,ioos:station:DISL:DISL:1,2017-11-02T13:30:00Z,30.2513,-88.0778,9.68,1.41,95.7,-9999.0,'1111122,1111122,1111122' 
DISL,ioos:station:DISL:DISL:1,2017-11-02T14:30:00Z,30.2513,-88.0778,9.68,0.88,88.7,-9999.0,'1111122,1111122,1111122' 
DISL,ioos:station:DISL:DISL:1,2017-11-02T15:30:00Z,30.2513,-88.0778,9.68,1.4,77.56,-9999.0,'1111122,1111122,1111122' 
DISL,ioos:station:DISL:DISL:1,2017-11-02T16:30:00Z,30.2513,-88.0778,9.68,2.8,122.3,-9999.0,'1111122,1111122,1111122' 
DISL,ioos:station:DISL:DISL:1,2017-11-02T17:30:00Z,30.2513,-88.0778,9.68,3.05,118.6,-9999.0,'1111122,1111122,1111122' 
DISL,ioos:station:DISL:DISL:1,2017-11-02T18:30:00Z,30.2513,-88.0778,9.68,2.86,120.8,-9999.0,'1111122,1111122,1111122' 
DISL,ioos:station:DISL:DISL:1,2017-11-02T19:30:00Z,30.2513,-88.0778,9.68,2.81,130.0,-9999.0,'1111122,1111122,1111122' 
DISL,ioos:station:DISL:DISL:1,2017-11-02T20:30:00Z,30.2513,-88.0778,9.68,3.13,122.3,-9999.0,'1111122,1111122,1111122' 
DISL,ioos:station:DISL:DISL:1,2017-11-02T21:30:00Z,30.2513,-88.0778,9.68,2.88,125.3,-9999.0,'1111122,1111122,1111122' 
DISL,ioos:station:DISL:DISL:1,2017-11-02T22:30:00Z,30.2513,-88.0778,9.68,2.65,130.4,-9999.0,'1111122,1111122,1111122' 
DISL,ioos:station:DISL:DISL:1,2017-11-02T23:30:00Z,30.2513,-88.0778,9.68,2.24,130.4,-9999.0,'1111122,1111122,1111122' 
DISL,ioos:station:DISL:DISL:1,2017-11-03T00:30:00Z,30.2513,-88.0778,9.68,2.64,126.7,-9999.0,'1111122,1111122,1111122' 
DISL,ioos:station:DISL:DISL:1,2017-11-03T01:30:00Z,30.2513,-88.0778,9.68,2.87,129.1,-9999.0,'1111122,1111122,1111122' 
DISL,ioos:station:DISL:DISL:1,2017-11-03T02:30:00Z,30.2513,-88.0778,9.68,3.11,127.9,-9999.0,'1111122,1111122,1111122' 
DISL,ioos:station:DISL:DISL:1,2017-11-03T03:30:00Z,30.2513,-88.0778,9.68,2.99,132.5,-9999.0,'1111122,1111122,1111122' 
DISL,ioos:station:DISL:DISL:1,2017-11-03T04:30:00Z,30.2513,-88.0778,9.68,2.63,136.7,-9999.0,'1111122,1111122,1111122' 
DISL,ioos:station:DISL:DISL:1,2017-11-03T05:30:00Z,30.2513,-88.0778,9.68,3.02,138.3,-9999.0,'1111122,1111122,1111122' 
DISL,ioos:station:DISL:DISL:1,2017-11-03T06:30:00Z,30.2513,-88.0778,9.68,2.9,135.1,-9999.0,'1111122,1111122,1111122' 
DISL,ioos:station:DISL:DISL:1,2017-11-03T07:30:00Z,30.2513,-88.0778,9.68,2.09,140.5,-9999.0,'1111122,1111122,1111122' 
DISL,ioos:station:DISL:DISL:1,2017-11-03T08:30:00Z,30.2513,-88.0778,9.68,2.06,147.8,-9999.0,'1111122,1111122,1111122' 
DISL,ioos:station:DISL:DISL:1,2017-11-03T09:30:00Z,30.2513,-88.0778,9.68,0.92,141.4,-9999.0,'1111122,1111122,1111122' 
DISL,ioos:station:DISL:DISL:1,2017-11-03T10:30:00Z,30.2513,-88.0778,9.68,0.59,47.71,-9999.0,'1111122,1111122,1111122' 
DISL,ioos:station:DISL:DISL:1,2017-11-03T11:30:00Z,30.2513,-88.0778,9.68,1.12,70.74,-9999.0,'1111122,1111122,1111122' 
DISL,ioos:station:DISL:DISL:1,2017-11-03T12:30:00Z,30.2513,-88.0778,9.68,2.02,92.7,-9999.0,'1111122,1111122,1111122' 
DISL,ioos:station:DISL:DISL:1,2017-11-03T13:30:00Z,30.2513,-88.0778,9.68,1.5,96.9,-9999.0,'1111122,1111122,1111122' 
DISL,ioos:station:DISL:DISL:1,2017-11-03T14:30:00Z,30.2513,-88.0778,9.68,2.43,79.79,-9999.0,'1111122,1111122,1111122' 
DISL,ioos:station:DISL:DISL:1,2017-11-03T15:30:00Z,30.2513,-88.0778,9.68,1.39,98.7,-9999.0,'1111122,1111122,1111122' 
DISL,ioos:station:DISL:DISL:1,2017-11-03T16:30:00Z,30.2513,-88.0778,9.68,1.85,116.5,-9999.0,'1111122,1111122,1111122' 
DISL,ioos:station:DISL:DISL:1,2017-11-03T17:30:00Z,30.2513,-88.0778,9.68,3.55,120.2,-9999.0,'1111122,1111122,1111122' 
DISL,ioos:station:DISL:DISL:1,2017-11-03T18:30:00Z,30.2513,-88.0778,9.68,3.2,124.1,-9999.0,'1111122,1111122,1111122' 
DISL,ioos:station:DISL:DISL:1,2017-11-03T19:30:00Z,30.2513,-88.0778,9.68,2.6,144.0,-9999.0,'1111122,1111122,1111122' 
DISL,ioos:station:DISL:DISL:1,2017-11-03T20:30:00Z,30.2513,-88.0778,9.68,2.7,132.0,-9999.0,'1111122,1111122,1111122' 
DISL,ioos:station:DISL:DISL:1,2017-11-03T21:30:00Z,30.2513,-88.0778,9.68,2.96,142.5,-9999.0,'1111122,1111122,1111122' 
DISL,ioos:station:DISL:DISL:1,2017-11-03T22:30:00Z,30.2513,-88.0778,9.68,1.85,167.7,-9999.0,'1111122,1111122,1111122' 
DISL,ioos:station:DISL:DISL:1,2017-11-04T00:30:00Z,30.2513,-88.0778,9.68,1.52,166.3,-9999.0,'1111122,1111122,1111122' 
DISL,ioos:station:DISL:DISL:1,2017-11-04T01:30:00Z,30.2513,-88.0778,9.68,1.72,168.9,-9999.0,'1111122,1111122,1111122' 
DISL,ioos:station:DISL:DISL:1,2017-11-04T02:30:00Z,30.2513,-88.0778,9.68,1.42,180.6,-9999.0,'1111122,1111122,1111122' 
DISL,ioos:station:DISL:DISL:1,2017-11-04T03:30:00Z,30.2513,-88.0778,9.68,0.64,166.6,-9999.0,'1111122,1111122,1111122' 
DISL,ioos:station:DISL:DISL:1,2017-11-04T04:30:00Z,30.2513,-88.0778,9.68,0.43,205.6,-9999.0,'1111122,1111122,1111122' 
DISL,ioos:station:DISL:DISL:1,2017-11-04T05:30:00Z,30.2513,-88.0778,9.68,0.0,0.0,-9999.0,'1114422,1114422,1111122' 
DISL,ioos:station:DISL:DISL:1,2017-11-04T06:30:00Z,30.2513,-88.0778,9.68,0.4,304.8,-9999.0,'1111122,1111122,1111122' 
DISL,ioos:station:DISL:DISL:1,2017-11-04T07:30:00Z,30.2513,-88.0778,9.68,0.94,299.4,-9999.0,'1111122,1111122,1111122' 
DISL,ioos:station:DISL:DISL:1,2017-11-04T08:30:00Z,30.2513,-88.0778,9.68,0.57,269.8,-9999.0,'1111122,1111122,1111122' 
DISL,ioos:station:DISL:DISL:1,2017-11-04T09:30:00Z,30.2513,-88.0778,9.68,1.81,358.8,-9999.0,'1111122,1111122,1111122' 
DISL,ioos:station:DISL:DISL:1,2017-11-04T10:30:00Z,30.2513,-88.0778,9.68,2.77,3.384,-9999.0,'1111122,1111122,1111122' 
DISL,ioos:station:DISL:DISL:1,2017-11-04T11:30:00Z,30.2513,-88.0778,9.68,2.24,25.41,-9999.0,'1111122,1111122,1111122' 
DISL,ioos:station:DISL:DISL:1,2017-11-04T12:30:00Z,30.2513,-88.0778,9.68,1.46,58.15,-9999.0,'1111122,1111122,1111122' 
DISL,ioos:station:DISL:DISL:1,2017-11-04T13:30:00Z,30.2513,-88.0778,9.68,1.27,81.2,-9999.0,'1111122,1111122,1111122' 
DISL,ioos:station:DISL:DISL:1,2017-11-04T14:30:00Z,30.2513,-88.0778,9.68,1.21,177.7,-9999.0,'1111122,1111122,1111122' 
DISL,ioos:station:DISL:DISL:1,2017-11-04T15:30:00Z,30.2513,-88.0778,9.68,1.14,157.3,-9999.0,'1111122,1111122,1111122' 
DISL,ioos:station:DISL:DISL:1,2017-11-04T16:30:00Z,30.2513,-88.0778,9.68,1.41,120.2,-9999.0,'1111122,1111122,1111122' 
DISL,ioos:station:DISL:DISL:1,2017-11-04T17:30:00Z,30.2513,-88.0778,9.68,0.74,72.54,-9999.0,'1111122,1111122,1111122' 
DISL,ioos:station:DISL:DISL:1,2017-11-04T18:30:00Z,30.2513,-88.0778,9.68,1.92,185.4,-9999.0,'1111122,1111122,1111122' 
DISL,ioos:station:DISL:DISL:1,2017-11-04T19:00:00Z,30.2513,-88.0778,9.68,1.74,190.8,-9999.0,'1111122,1111122,1111122' 
DISL,ioos:station:DISL:DISL:1,2017-11-04T20:30:00Z,30.2513,-88.0778,9.68,2.08,167.2,-9999.0,'1111122,1111122,1111122' 
DISL,ioos:station:DISL:DISL:1,2017-11-04T21:30:00Z,30.2513,-88.0778,9.68,1.64,178.3,-9999.0,'1111122,1111122,1111122' 
DISL,ioos:station:DISL:DISL:1,2017-11-04T22:30:00Z,30.2513,-88.0778,9.68,1.62,182.4,-9999.0,'1111122,1111122,1111122' 
DISL,ioos:station:DISL:DISL:1,2017-11-04T23:30:00Z,30.2513,-88.0778,9.68,1.22,171.8,-9999.0,'1111122,1111122,1111122' 
DISL,ioos:station:DISL:DISL:1,2017-11-05T00:30:00Z,30.2513,-88.0778,9.68,0.91,173.7,-9999.0,'1111122,1111122,1111122' 
DISL,ioos:station:DISL:DISL:1,2017-11-05T01:30:00Z,30.2513,-88.0778,9.68,1.01,184.9,-9999.0,'1111122,1111122,1111122' 
DISL,ioos:station:DISL:DISL:1,2017-11-05T02:00:00Z,30.2513,-88.0778,9.68,1.47,185.3,-9999.0,'1111122,1111122,1111122' 
DISL,ioos:station:DISL:DISL:1,2017-11-05T03:30:00Z,30.2513,-88.0778,9.68,1.36,195.9,-9999.0,'1111122,1111122,1111122' 
DISL,ioos:station:DISL:DISL:1,2017-11-05T04:30:00Z,30.2513,-88.0778,9.68,0.68,196.1,-9999.0,'1111122,1111122,1111122' 
DISL,ioos:station:DISL:DISL:1,2017-11-05T05:30:00Z,30.2513,-88.0778,9.68,1.16,171.9,-9999.0,'1111122,1111122,1111122' 
DISL,ioos:station:DISL:DISL:1,2017-11-05T06:30:00Z,30.2513,-88.0778,9.68,1.14,154.7,-9999.0,'1111122,1111122,1111122' 
DISL,ioos:station:DISL:DISL:1,2017-11-05T08:30:00Z,30.2513,-88.0778,9.68,0.7,279.9,-9999.0,'1111122,1111122,1111122' 
DISL,ioos:station:DISL:DISL:1,2017-11-05T09:30:00Z,30.2513,-88.0778,9.68,0.64,292.7,-9999.0,'1111122,1111122,1111122' 
DISL,ioos:station:DISL:DISL:1,2017-11-05T10:30:00Z,30.2513,-88.0778,9.68,0.56,78.16,-9999.0,'1111122,1111122,1111122' 
DISL,ioos:station:DISL:DISL:1,2017-11-05T11:30:00Z,30.2513,-88.0778,9.68,0.18,343.0,-9999.0,'1111122,1111122,1111122' 
DISL,ioos:station:DISL:DISL:1,2017-11-05T12:30:00Z,30.2513,-88.0778,9.68,1.32,54.18,-9999.0,'1111122,1111122,1111122' 
DISL,ioos:station:DISL:DISL:1,2017-11-05T13:30:00Z,30.2513,-88.0778,9.68,1.46,64.75,-9999.0,'1111122,1111122,1111122' 
DISL,ioos:station:DISL:DISL:1,2017-11-05T14:30:00Z,30.2513,-88.0778,9.68,2.27,84.2,-9999.0,'1111122,1111122,1111122' 
DISL,ioos:station:DISL:DISL:1,2017-11-05T15:30:00Z,30.2513,-88.0778,9.68,2.26,93.9,-9999.0,'1111122,1111122,1111122' 
DISL,ioos:station:DISL:DISL:1,2017-11-05T16:30:00Z,30.2513,-88.0778,9.68,1.93,60.68,-9999.0,'1111122,1111122,1111122' 
DISL,ioos:station:DISL:DISL:1,2017-11-05T17:30:00Z,30.2513,-88.0778,9.68,2.64,114.9,-9999.0,'1111122,1111122,1111122' 
DISL,ioos:station:DISL:DISL:1,2017-11-05T18:30:00Z,30.2513,-88.0778,9.68,2.64,118.3,-9999.0,'1111122,1111122,1111122' 
DISL,ioos:station:DISL:DISL:1,2017-11-05T19:30:00Z,30.2513,-88.0778,9.68,3.01,123.5,-9999.0,'1111122,1111122,1111122' 
DISL,ioos:station:DISL:DISL:1,2017-11-05T20:30:00Z,30.2513,-88.0778,9.68,3.1,141.5,-9999.0,'1111122,1111122,1111122' 
DISL,ioos:station:DISL:DISL:1,2017-11-05T21:30:00Z,30.2513,-88.0778,9.68,3.1,141.4,-9999.0,'1111122,1111122,1111122' 
DISL,ioos:station:DISL:DISL:1,2017-11-05T22:30:00Z,30.2513,-88.0778,9.68,2.77,150.7,-9999.0,'1111122,1111122,1111122' 
DISL,ioos:station:DISL:DISL:1,2017-11-05T23:30:00Z,30.2513,-88.0778,9.68,2.52,152.3,-9999.0,'1111122,1111122,1111122' 
DISL,ioos:station:DISL:DISL:1,2017-11-06T00:30:00Z,30.2513,-88.0778,9.68,2.21,154.2,-9999.0,'1111122,1111122,1111122' 
DISL,ioos:station:DISL:DISL:1,2017-11-06T01:30:00Z,30.2513,-88.0778,9.68,1.83,168.8,-9999.0,'1111122,1111122,1111122' 
DISL,ioos:station:DISL:DISL:1,2017-11-06T02:30:00Z,30.2513,-88.0778,9.68,2.27,159.5,-9999.0,'1111122,1111122,1111122' 
DISL,ioos:station:DISL:DISL:1,2017-11-06T03:30:00Z,30.2513,-88.0778,9.68,2.3,157.5,-9999.0,'1111122,1111122,1111122' 
DISL,ioos:station:DISL:DISL:1,2017-11-06T04:30:00Z,30.2513,-88.0778,9.68,2.36,157.0,-9999.0,'1111122,1111122,1111122' 
DISL,ioos:station:DISL:DISL:1,2017-11-06T05:30:00Z,30.2513,-88.0778,9.68,2.04,162.9,-9999.0,'1111122,1111122,1111122' 
DISL,ioos:station:DISL:DISL:1,2017-11-06T06:30:00Z,30.2513,-88.0778,9.68,1.89,171.9,-9999.0,'1111122,1111122,1111122' 
DISL,ioos:station:DISL:DISL:1,2017-11-06T07:30:00Z,30.2513,-88.0778,9.68,0.89,208.1,-9999.0,'1111122,1111122,1111122' 
DISL,ioos:station:DISL:DISL:1,2017-11-06T08:30:00Z,30.2513,-88.0778,9.68,0.88,241.0,-9999.0,'1111122,1111122,1111122' 
DISL,ioos:station:DISL:DISL:1,2017-11-06T09:30:00Z,30.2513,-88.0778,9.68,1.1,245.4,-9999.0,'1111122,1111122,1111122' 
DISL,ioos:station:DISL:DISL:1,2017-11-06T10:30:00Z,30.2513,-88.0778,9.68,0.8,241.0,-9999.0,'1111122,1111122,1111122' 
DISL,ioos:station:DISL:DISL:1,2017-11-06T11:30:00Z,30.2513,-88.0778,9.68,0.16,117.9,-9999.0,'1111122,1111122,1111122' 
DISL,ioos:station:DISL:DISL:1,2017-11-06T12:30:00Z,30.2513,-88.0778,9.68,0.55,241.1,-9999.0,'1111122,1111122,1111122' 
DISL,ioos:station:DISL:DISL:1,2017-11-06T13:30:00Z,30.2513,-88.0778,9.68,1.24,91.8,-9999.0,'1111122,1111122,1111122' 
DISL,ioos:station:DISL:DISL:1,2017-11-06T14:30:00Z,30.2513,-88.0778,9.68,2.18,77.87,-9999.0,'1111122,1111122,1111122' 
DISL,ioos:station:DISL:DISL:1,2017-11-06T15:30:00Z,30.2513,-88.0778,9.68,1.53,57.6,-9999.0,'1111122,1111122,1111122' 
DISL,ioos:station:DISL:DISL:1,2017-11-06T16:30:00Z,30.2513,-88.0778,9.68,2.47,127.7,-9999.0,'1111122,1111122,1111122' 
DISL,ioos:station:DISL:DISL:1,2017-11-06T17:30:00Z,30.2513,-88.0778,9.68,2.59,170.0,-9999.0,'1111122,1111122,1111122' 
DISL,ioos:station:DISL:DISL:1,2017-11-06T18:00:00Z,30.2513,-88.0778,9.68,2.61,163.7,-9999.0,'1111122,1111122,1111122' 
DISL,ioos:station:DISL:DISL:1,2017-11-06T19:30:00Z,30.2513,-88.0778,9.68,2.47,209.1,-9999.0,'1111122,1111122,1111122' 
DISL,ioos:station:DISL:DISL:1,2017-11-06T20:30:00Z,30.2513,-88.0778,9.68,2.72,220.6,-9999.0,'1111122,1111122,1111122' 
DISL,ioos:station:DISL:DISL:1,2017-11-06T21:30:00Z,30.2513,-88.0778,9.68,2.3,229.2,-9999.0,'1111122,1111122,1111122' 
DISL,ioos:station:DISL:DISL:1,2017-11-06T22:30:00Z,30.2513,-88.0778,9.68,1.53,227.9,-9999.0,'1111122,1111122,1111122' 
DISL,ioos:station:DISL:DISL:1,2017-11-06T23:30:00Z,30.2513,-88.0778,9.68,1.13,225.1,-9999.0,'1111122,1111122,1111122' 
DISL,ioos:station:DISL:DISL:1,2017-11-07T00:30:00Z,30.2513,-88.0778,9.68,0.97,195.2,-9999.0,'1111122,1111122,1111122' 
DISL,ioos:station:DISL:DISL:1,2017-11-07T01:30:00Z,30.2513,-88.0778,9.68,0.92,200.8,-9999.0,'1111122,1111122,1111122' 
DISL,ioos:station:DISL:DISL:1,2017-11-07T02:30:00Z,30.2513,-88.0778,9.68,1.55,194.9,-9999.0,'1111122,1111122,1111122' 
DISL,ioos:station:DISL:DISL:1,2017-11-07T03:30:00Z,30.2513,-88.0778,9.68,1.87,207.1,-9999.0,'1111122,1111122,1111122' 
DISL,ioos:station:DISL:DISL:1,2017-11-07T04:30:00Z,30.2513,-88.0778,9.68,1.55,215.9,-9999.0,'1111122,1111122,1111122' 
DISL,ioos:station:DISL:DISL:1,2017-11-07T05:30:00Z,30.2513,-88.0778,9.68,1.4,201.2,-9999.0,'1111122,1111122,1111122' 
DISL,ioos:station:DISL:DISL:1,2017-11-07T06:00:00Z,30.2513,-88.0778,9.68,1.56,205.9,-9999.0,'1111122,1111122,1111122' 
DISL,ioos:station:DISL:DISL:1,2017-11-07T08:00:00Z,30.2513,-88.0778,9.68,1.31,248.2,-9999.0,'1111122,1111122,1111122' 
DISL,ioos:station:DISL:DISL:1,2017-11-07T10:00:00Z,30.2513,-88.0778,9.68,1.29,254.2,-9999.0,'1111122,1111122,1111122' 
DISL,ioos:station:DISL:DISL:1,2017-11-07T11:30:00Z,30.2513,-88.0778,9.68,1.56,243.7,-9999.0,'1111122,1111122,1111122' 
DISL,ioos:station:DISL:DISL:1,2017-11-07T12:30:00Z,30.2513,-88.0778,9.68,1.61,265.7,-9999.0,'1111122,1111122,1111122' 
DISL,ioos:station:DISL:DISL:1,2017-11-07T13:00:00Z,30.2513,-88.0778,9.68,1.58,260.8,-9999.0,'1111122,1111122,1111122' 
DISL,ioos:station:DISL:DISL:1,2017-11-07T14:30:00Z,30.2513,-88.0778,9.68,2.57,278.9,-9999.0,'1111122,1111122,1111122' 
DISL,ioos:station:DISL:DISL:1,2017-11-07T15:30:00Z,30.2513,-88.0778,9.68,3.4,283.8,-9999.0,'1111122,1111122,1111122' 
DISL,ioos:station:DISL:DISL:1,2017-11-07T16:30:00Z,30.2513,-88.0778,9.68,4.03,297.9,-9999.0,'1111122,1111122,1111122' 
DISL,ioos:station:DISL:DISL:1,2017-11-07T17:30:00Z,30.2513,-88.0778,9.68,4.8,296.2,-9999.0,'1111122,1111122,1111122' 
DISL,ioos:station:DISL:DISL:1,2017-11-07T18:30:00Z,30.2513,-88.0778,9.68,1.99,253.1,-9999.0,'1111122,1111122,1111122' 
DISL,ioos:station:DISL:DISL:1,2017-11-07T19:30:00Z,30.2513,-88.0778,9.68,2.7,288.3,-9999.0,'1111122,1111122,1111122' 
DISL,ioos:station:DISL:DISL:1,2017-11-07T20:30:00Z,30.2513,-88.0778,9.68,3.01,260.5,-9999.0,'1111122,1111122,1111122' 
DISL,ioos:station:DISL:DISL:1,2017-11-07T21:30:00Z,30.2513,-88.0778,9.68,2.57,224.2,-9999.0,'1111122,1111122,1111122' 
DISL,ioos:station:DISL:DISL:1,2017-11-07T22:30:00Z,30.2513,-88.0778,9.68,1.75,244.2,-9999.0,'1111122,1111122,1111122' 
DISL,ioos:station:DISL:DISL:1,2017-11-07T23:30:00Z,30.2513,-88.0778,9.68,1.58,266.1,-9999.0,'1111122,1111122,1111122' 
DISL,ioos:station:DISL:DISL:1,2017-11-08T00:30:00Z,30.2513,-88.0778,9.68,1.47,263.1,-9999.0,'1111122,1111122,1111122' 
DISL,ioos:station:DISL:DISL:1,2017-11-08T01:30:00Z,30.2513,-88.0778,9.68,1.02,259.9,-9999.0,'1111122,1111122,1111122' 
DISL,ioos:station:DISL:DISL:1,2017-11-08T02:30:00Z,30.2513,-88.0778,9.68,1.82,232.6,-9999.0,'1111122,1111122,1111122' 
DISL,ioos:station:DISL:DISL:1,2017-11-08T03:30:00Z,30.2513,-88.0778,9.68,1.47,251.1,-9999.0,'1111122,1111122,1111122' 
DISL,ioos:station:DISL:DISL:1,2017-11-08T05:30:00Z,30.2513,-88.0778,9.68,1.63,258.1,-9999.0,'1111122,1111122,1111122' 
DISL,ioos:station:DISL:DISL:1,2017-11-08T06:30:00Z,30.2513,-88.0778,9.68,1.65,232.9,-9999.0,'1111122,1111122,1111122' 
DISL,ioos:station:DISL:DISL:1,2017-11-08T07:30:00Z,30.2513,-88.0778,9.68,1.88,250.6,-9999.0,'1111122,1111122,1111122' 
DISL,ioos:station:DISL:DISL:1,2017-11-08T08:30:00Z,30.2513,-88.0778,9.68,1.64,269.2,-9999.0,'1111122,1111122,1111122' 
DISL,ioos:station:DISL:DISL:1,2017-11-08T09:30:00Z,30.2513,-88.0778,9.68,2.32,275.7,-9999.0,'1111122,1111122,1111122' 
DISL,ioos:station:DISL:DISL:1,2017-11-08T10:30:00Z,30.2513,-88.0778,9.68,3.13,273.1,-9999.0,'1111122,1111122,1111122' 
DISL,ioos:station:DISL:DISL:1,2017-11-08T11:30:00Z,30.2513,-88.0778,9.68,3.54,275.5,-9999.0,'1111122,1111122,1111122' 
DISL,ioos:station:DISL:DISL:1,2017-11-08T12:30:00Z,30.2513,-88.0778,9.68,1.97,270.6,-9999.0,'1111122,1111122,1111122' 
DISL,ioos:station:DISL:DISL:1,2017-11-08T13:30:00Z,30.2513,-88.0778,9.68,1.9,284.2,-9999.0,'1111122,1111122,1111122' 
DISL,ioos:station:DISL:DISL:1,2017-11-08T14:30:00Z,30.2513,-88.0778,9.68,2.38,343.1,-9999.0,'1111122,1111122,1111122' 
DISL,ioos:station:DISL:DISL:1,2017-11-08T15:30:00Z,30.2513,-88.0778,9.68,1.97,18.71,-9999.0,'1111122,1111122,1111122' 
DISL,ioos:station:DISL:DISL:1,2017-11-08T16:30:00Z,30.2513,-88.0778,9.68,1.85,353.3,-9999.0,'1111122,1111122,1111122' 
DISL,ioos:station:DISL:DISL:1,2017-11-08T17:30:00Z,30.2513,-88.0778,9.68,2.34,37.26,-9999.0,'1111122,1111122,1111122' 
DISL,ioos:station:DISL:DISL:1,2017-11-08T18:30:00Z,30.2513,-88.0778,9.68,2.0,31.39,-9999.0,'1111122,1111122,1111122' 
DISL,ioos:station:DISL:DISL:1,2017-11-08T19:30:00Z,30.2513,-88.0778,9.68,4.25,17.73,-9999.0,'1111122,1111122,1111122' 
DISL,ioos:station:DISL:DISL:1,2017-11-08T20:30:00Z,30.2513,-88.0778,9.68,7.24,5.123,-9999.0,'1111122,1111122,1111122' 
DISL,ioos:station:DISL:DISL:1,2017-11-08T21:30:00Z,30.2513,-88.0778,9.68,7.49,9.7,-9999.0,'1111122,1111122,1111122' 
DISL,ioos:station:DISL:DISL:1,2017-11-08T22:00:00Z,30.2513,-88.0778,9.68,7.79,10.1,-9999.0,'1111122,1111122,1111122' 
DISL,ioos:station:DISL:DISL:1,2017-11-08T23:30:00Z,30.2513,-88.0778,9.68,7.62,1.761,-9999.0,'1111122,1111122,1111122' 
DISL,ioos:station:DISL:DISL:1,2017-11-09T00:30:00Z,30.2513,-88.0778,9.68,7.21,10.05,-9999.0,'1111122,1111122,1111122' 
DISL,ioos:station:DISL:DISL:1,2017-11-09T01:30:00Z,30.2513,-88.0778,9.68,7.85,16.56,-9999.0,'1111122,1111122,1111122' 
DISL,ioos:station:DISL:DISL:1,2017-11-09T02:30:00Z,30.2513,-88.0778,9.68,6.28,23.73,-9999.0,'1111122,1111122,1111122' 
DISL,ioos:station:DISL:DISL:1,2017-11-09T03:30:00Z,30.2513,-88.0778,9.68,7.45,10.02,-9999.0,'1111122,1111122,1111122' 
DISL,ioos:station:DISL:DISL:1,2017-11-09T04:00:00Z,30.2513,-88.0778,9.68,7.46,10.36,-9999.0,'1111122,1111122,1111122' 
DISL,ioos:station:DISL:DISL:1,2017-11-09T05:30:00Z,30.2513,-88.0778,9.68,7.67,3.907,-9999.0,'1111122,1111122,1111122' 
DISL,ioos:station:DISL:DISL:1,2017-11-09T06:00:00Z,30.2513,-88.0778,9.68,6.84,4.868,-9999.0,'1111122,1111122,1111122' 
DISL,ioos:station:DISL:DISL:1,2017-11-09T07:30:00Z,30.2513,-88.0778,9.68,7.41,5.839,-9999.0,'1111122,1111122,1111122' 
DISL,ioos:station:DISL:DISL:1,2017-11-09T08:30:00Z,30.2513,-88.0778,9.68,6.71,15.19,-9999.0,'1111122,1111122,1111122' 
DISL,ioos:station:DISL:DISL:1,2017-11-09T09:30:00Z,30.2513,-88.0778,9.68,8.06,334.3,-9999.0,'1111122,1111122,1111122' 
DISL,ioos:station:DISL:DISL:1,2017-11-09T10:30:00Z,30.2513,-88.0778,9.68,6.83,8.26,-9999.0,'1111122,1111122,1111122' 
DISL,ioos:station:DISL:DISL:1,2017-11-09T11:30:00Z,30.2513,-88.0778,9.68,8.89,349.7,-9999.0,'1111122,1111122,1111122' 
DISL,ioos:station:DISL:DISL:1,2017-11-09T12:30:00Z,30.2513,-88.0778,9.68,8.54,349.1,-9999.0,'1111122,1111122,1111122' 
DISL,ioos:station:DISL:DISL:1,2017-11-09T13:30:00Z,30.2513,-88.0778,9.68,8.95,346.5,-9999.0,'1111122,1111122,1111122' 